Weather Roundup
Issued by NWS Chicago, IL

Home | Current Version | Previous Version | Graphics & Text | Print | Product List | Glossary On
Versions: 1 2 3 4 5 6 7 8 9 10 11 12 13 14 15 16 17 18 19 20 21 22 23 24 25 26 27 28 29 30 31 32 33 34 35 36 37 38 39 40 41 42 43 44 45 46 47 48 49 50
000
NZUS59 KLOT 251900
HRRLOT

CHICAGO AREA WEATHER ROUNDUP
NATIONAL WEATHER SERVICE CHICAGO/ROMEOVILLE IL
200 PM CDT FRI JUL 25 2014

NOTE: "FAIR" INDICATES FEW OR NO CLOUDS BELOW 12,000 FEET WITH NO
SIGNIFICANT WEATHER AND/OR OBSTRUCTIONS TO VISIBILITY.

* THESE STATIONS ARE NOT UNDER NWS QUALITY CONTROL. THEY ALSO MAY NOT
  REPORT WEATHER SUCH AS PRECIPITATION OR FOG.

ILZ005-006-012>014-019>023-252000-
NORTHEAST ILLINOIS

CITY           SKY/WX    TMP DP  RH WIND       PRES   REMARKS
OHARE          CLOUDY    73  56  54 S14       29.89F
MIDWAY         CLOUDY    75  58  55 S15G24    29.89F
AURORA         CLOUDY    72  60  66 SW12G23   29.97R
LANSING*       CLOUDY    74  58  56 S17       29.94F
WAUKEGAN       CLOUDY    71  54  54 S8        29.93F
DUPAGE AIRPORT CLOUDY    71  59  65 SW13      29.96R
WHEELING       CLOUDY    75  55  49 S13       29.92F
NORTHERLY IS     N/A     72  55  55 S16         N/A
$$

WIZ051-052-058>065-066-070>072-252000-
SOUTHEAST WISCONSIN

CITY           SKY/WX    TMP DP  RH WIND       PRES   REMARKS
MILWAUKEE      LGT RAIN  70  57  63 SW13      29.94S
KENOSHA*       CLOUDY    70  58  65 SW10      29.96S
RACINE*        CLOUDY    71  56  58 W7        29.97R
WAUKESHA       PTSUNNY   66  57  72 S7        29.95S
$$

INZ001>003-010>013-019-020-252000-
NORTHWEST INDIANA

CITY           SKY/WX    TMP DP  RH WIND       PRES   REMARKS
GARY*          PTSUNNY   75  59  57 S14       29.96F
MICHIGAN CITY* NOT AVBL
RENSSELAER*    NOT AVBL
VALPARAISO     CLOUDY    74  58  57 S15       29.99F
$$

LMZ740>746-252000-
SOUTHERN LAKE MICHIGAN

STATION/POSITION TIME  SKY/WX   TEMP WIND        PRES    VSBY
                                AIR  DIR/SP/G
                 (UTC)          (F)  (DEG/KT/KT) (MB)    (MI)
HARRISON CRIB    1800            70  200/ 21/ 25   N/A
BURNHAM HARBOR   1900            72  220/ 14/ 14   N/A
CALUMET HARBOR   1800            72  210/ 13/ 17 1013.1F
BURNS HARBOR     1900            73  200/ 16/ 21 1015.2F
MICHIGAN CITY    1800            72  190/ 14/ 18   N/A
$$

ABBREVIATIONS USED IN REMARKS
   TC - TEMPERATURE IN CELSIUS
  WCI - WIND CHILL INDEX
   HX - HEAT INDEX
  VSB - VISIBILITY
$$


USA.gov is the U.S. government's official web portal to all federal, state and local government web resources and services.